Regional Weather Roundup
Issued by NWS Upton, NY

Current Version | Previous Version | Graphics & Text | Print | Product List | Glossary Off
Versions: 1 2 3 4 5 6 7 8 9 10 11 12 13 14 15 16 17 18 19 20 21 22 23 24 25 26 27 28 29 30 31 32 33 34 35 36 37 38 39 40 41 42 43 44 45 46 47 48

000
ASUS41 KOKX 220205
RWROKX

REGIONAL WEATHER ROUNDUP
NATIONAL WEATHER SERVICE NEW YORK NY
900 PM EST SUN DEC 21 2014

NOTE: "FAIR" INDICATES FEW OR NO CLOUDS BELOW 12,000 FEET WITH NO
SIGNIFICANT WEATHER AND/OR OBSTRUCTIONS TO VISIBILITY.

NYZ071-072-176-178-NJZ106-104-220300-
NEW YORK CITY METRO AREA


CITY           SKY/WX    TMP DP  RH WIND       PRES   REMARKS
CENTRAL PARK   CLOUDY    34  28  79 VRB5      30.36R WCI  30
LAGUARDIA APRT CLOUDY    35  29  78 N8        30.34R WCI  29
KENNEDY INTL   FLURRIES  36  30  79 N9        30.35S WCI  29
NEWARK/LIBERTY CLOUDY    35  28  75 N9        30.34S WCI  28
BRNX BOT. GARD   N/A    N/A N/A N/A W1        30.33F
TETERBORO      CLOUDY    35  27  72 N6        30.34S WCI  30
$$

NYZ177-179-078>081-220300-
LONG ISLAND NEW YORK

CITY           SKY/WX    TMP DP  RH WIND       PRES   REMARKS
FARMINGDALE    CLOUDY    36  33  89 N9        30.33S WCI  29
ISLIP          CLOUDY    36  33  89 N7        30.31R WCI  30
SHIRLEY        CLOUDY    37  34  89 N6        30.33R WCI  32
WESTHAMPTON    CLOUDY    37  35  92 N7        30.33R WCI  32
MONTAUK POINT    N/A     39  35  86 NE7G17    30.33R WCI  34
$$

NYZ052-065-067-220300-
HUDSON VALLEY

CITY           SKY/WX    TMP DP  RH WIND       PRES   REMARKS
WHITE PLAINS   CLOUDY    32  29  88 N6        30.31S WCI  26
NEWBURGH       CLOUDY    32  28  86 CALM      30.35R
MONTGOMERY     CLOUDY    32  27  81 NE3       30.33S
POUGHKEEPSIE   CLOUDY    33  26  75 NE3       30.35S
ALBANY         CLOUDY    31  24  75 CALM      30.37S
$$

NJZ001-105-106-008-010-013-015-019>022-104-220300-
NEW JERSEY

CITY           SKY/WX    TMP DP  RH WIND       PRES   REMARKS
NEWARK/LIBERTY CLOUDY    35  28  75 N9        30.34S WCI  28
TETERBORO      CLOUDY    35  27  72 N6        30.34S WCI  30
CALDWELL       FLURRIES  33  27  78 CALM      30.34S
MORRISTOWN     CLOUDY    34  28  80 CALM      30.34S
SOMERVILLE     CLOUDY    35  25  66 N3        30.32S
SUSSEX         CLOUDY    32  26  78 NE5       30.33S WCI  27
ANDOVER          N/A     32  26  78 NE3       30.32F
TRENTON        CLOUDY    32  23  69 N5        30.32F WCI  27
MILLVILLE      CLEAR     23  20  88 CALM      30.34R
ATLANTIC CITY  CLEAR     27  21  78 CALM      30.34S
WRIGHTSTOWN    CLOUDY    31  25  80 CALM      30.31F
TOMS RIVER     CLOUDY    32  27  80 CALM      30.33F
BELMAR         CLOUDY    36  25  64 NW3       30.32F
$$

PAZ047>061-062-071-220300-
EASTERN PENNSYLVANIA

CITY           SKY/WX    TMP DP  RH WIND       PRES   REMARKS
PHILADELPHIA   PTCLDY    34  22  61 CALM      30.36S
ALLENTOWN      MOCLDY    27  19  72 NW3       30.33F
SCRANTON       CLOUDY    30  21  69 CALM      30.30F
$$

CTZ002-004>006-009-010-012-RIZ004-006-007-MAZ004-011-015-220300-
SOUTHERN NEW ENGLAND
 IN CT

CITY           SKY/WX    TMP DP  RH WIND       PRES   REMARKS
BRADLEY INTL   CLOUDY    33  30  88 N5        30.34S WCI  29
HARTFORD       LGT SNOW  34  30  85 N7        30.36R FOG     WCI  28
DANBURY        CLOUDY    32  28  85 CALM      30.34R FOG
WTRBRY/OXFORD  LGT SNOW  32  27  80 NE5       30.32R FOG     WCI  27
BRIDGEPORT     CLOUDY    36  33  89 N7        30.34R WCI  30
MERIDEN        CLOUDY    34  30  85 N5        30.35R WCI  30
NEW HAVEN      CLOUDY    37  32  82 N8        30.33S WCI  31
CHESTER        MIX PCPN  34  32  93 N7        30.32S WCI  28
GROTON         CLOUDY    34  32  92 N9        30.33R WCI  27
WILLIMANTIC    CLOUDY    33  30  88 N3        30.34S

 IN RI

CITY           SKY/WX    TMP DP  RH WIND       PRES   REMARKS
PROVIDENCE     DRIZZLE   34  29  82 N7        30.34S WCI  28
BLOCK ISLAND   CLOUDY    37  32  81 NE12G18   30.30S WCI  30
WESTERLY       CLOUDY    34  31  88 N6        30.33S WCI  29

 IN MA

CITY           SKY/WX    TMP DP  RH WIND       PRES   REMARKS
BOSTON         CLOUDY    34  25  69 N8        30.35S WCI  27
WORCESTER      CLOUDY    29  27  92 N7        30.31R WCI  22
WESTFIELD      CLOUDY    33  30  88 N6        30.34S WCI  28
PROVINCETOWN   CLOUDY    43  34  70 NE8       30.32S
NANTUCKET      CLOUDY    42  36  79 N3        30.30R
$$

ANZ330-335-338-340-345-350-353-355-220300-
COASTAL MARINE OBSERVATIONS


STATION/POSITION TIME  SKY/WX   TEMP    WIND        PRES    VSBY  WAVE
                                AIR SEA DIR/SP/G                  HT/PER
                 (UTC)          (F)     (DEG/KT/KT) (MB)    (MI)  (FT/S)
NY HARB ENTRANCE 0200            37 47  350/  8/ 10 1027.5          1/ 5
4S FIRE IS       0200               46                N/A           2/ 5
20S FIRE ISLAND  0100            39 49              1026.9          2/ 5
23SW MTP         0200                                 N/A           3/ 4
HUDSON CANYON    0200            42 56  330/  8/ 12 1026.2          2/ 5
EXECUTION ROCKS  0200            36 41  350/  6/ 10   N/A
WESTERN LI SOUND 0200            35     360/  6/ 10   N/A           0
CENTRAL LI SOUND 0100            36 44   30/ 12/ 14   N/A           2/ 2
EASTERN LI SOUND NOT AVBL
ROBBINS REEF     0200            35     310/  7/ 12 1026.2
$$


>>>>>>>>>>>>>>>>>>>>>>>>>>>> KEY <<<<<<<<<<<<<<<<<<<<<<<<<<<
>                                                          <
>     SKY/WX - SKY CONDITION/PRESENT WEATHER               <
>     TMP    - TEMPERATURE IN FAHRENHEIT                   <
>     DP     - DEWPOINT IN FAHRENHEIT                      <
>     RH     - RELATIVE HUMIDITY IN PERCENT                <
>     WIND   - DIRECTION AND SPEED IN MPH                  <
>     PRES   - MEAN SEA LEVEL PRESSURE IN INCHES OF HG     <
>     WCI    - WIND CHILL INDEX                            <
>     VSB    - VISIBILITY IN MILES                         <
>     HX     - HEAT INDEX                                  <
>     TC     - TEMPERATURE IN CELSIUS                      <
>     VRB    - VARIABLE WIND DIRECTION                     <
>                                                          <
>>>>>>>>>>>>>>>>>>>>>>>>>>>> KEY <<<<<<<<<<<<<<<<<<<<<<<<<<<





USA.gov is the U.S. government's official web portal to all federal, state and local government web resources and services.